Weather Roundup
Issued by NWS

Home | Current Version | Previous Version | Graphics & Text | Print | Product List | Glossary Off
Versions: 1 2 3 4 5 6 7 8 9 10 11 12 13 14 15 16 17 18 19 20 21 22 23 24 25 26 27 28 29 30 31 32 33 34 35 36 37 38 39 40 41 42 43 44 45 46 47 48 49 50

532
NZUS93 KARX 020010
HRRWXR

CURRENT HOURLY OBSERVATIONS ACROSS
MUCH OF THE UPPER MISSISSIPPI VALLEY
NATIONAL WEATHER SERVICE LA CROSSE WI
700 PM CDT SUN MAY 01 2016


...SOUTHEAST MINNESOTA...


CITY           SKY/WX    TMP DP  RH WIND       PRES   REMARKS
ROCHESTER      CLOUDY    53  42  66 S8        30.09S
ROCHESTER/MAYO CLOUDY    55  38  53 SE8       30.08S
WINONA         CLOUDY    57  39  51 CALM      30.07S
AUSTIN         CLOUDY    52  43  71 SE5       30.09R
ALBERT LEA     CLOUDY    57  37  47 SE2       30.08S
DODGE CENTER   CLOUDY    57  36  44 NE7       30.08R
PRESTON        CLOUDY    49  42  76 SW3       30.09S
OWATONNA       CLOUDY    57  36  44 N7        30.08S
FARIBAULT      MOSUNNY   61  36  39 N8        30.09S
$$

...ELSEWHERE IN MINNESOTA...


CITY           SKY/WX    TMP DP  RH WIND       PRES   REMARKS
MINNEAPOLIS    PTSUNNY   62  33  33 N9G20     30.09F
INTNL FALLS    SUNNY     59  27  29 E3        30.14F
DULUTH         MOSUNNY   50  31  48 E12       30.16S
RED WING       CLOUDY    61  34  36 N3        30.07S
REDWOOD FALLS  MOSUNNY   61  30  31 N8        30.12S
MANKATO        SUNNY     59  34  38 N13       30.10S
WORTHINGTON    SUNNY     55  37  50 N10       30.12F
FAIRMONT       CLOUDY    55  39  54 N8        30.10S
$$

...SOUTHWEST WISCONSIN...


CITY           SKY/WX    TMP DP  RH WIND       PRES   REMARKS
LA CROSSE      CLOUDY    58  35  42 E5        30.06S
PRAIRIE DU CHI LGT RAIN  49  46  90 NW5       30.07R
BOSCOBEL       LGT RAIN  51  45  79 N8        30.07R
LONE ROCK      LGT RAIN  51  44  77 N10       30.06R
PLATTEVILLE    CLOUDY    50  46  87 NW7       30.03R
FORT MC COY    CLOUDY    58  33  40 E7        30.07R
CAMP DOUGLAS     N/A     56  36  47 E9        30.06R
MAUSTON-NEW LI CLOUDY    56  36  46 E6        30.05
VIROQUA        CLOUDY    53  44  72 CALM      30.06S
WIS DELLS      CLOUDY    53  37  53 NE10G16   30.04F
$$

...ELSEWHERE IN WISCONSIN...


CITY           SKY/WX    TMP DP  RH WIND       PRES   REMARKS
MILWAUKEE      DRIZZLE   43  42  97 NE12G18   30.02F FOG
MADISON        CLOUDY    53  40  61 NE18      30.02R
GREEN BAY      PTCLDY    53  40  61 E13       30.09S
EAU CLAIRE     CLOUDY    62  32  32 N3        30.06R
BLACK RVR FLS  FAIR      59  30  33 CALM      30.06S
MEDFORD        CLOUDY    58  32  38 E6        30.05S
WAUSAU         CLOUDY    59  31  34 E6        30.05R
WIS RAPIDS     MOSUNNY   56  33  42 SE9       30.08R
MARSHFIELD     CLOUDY    58  34  40 SE7       30.06R
RICE LAKE      MOSUNNY   60  33  36 N13       30.09S
$$

...NORTHEAST IOWA...


CITY           SKY/WX    TMP DP  RH WIND       PRES   REMARKS
WATERLOO       CLOUDY    48  45  89 N13       30.07F
DUBUQUE        CLOUDY    48  47  96 N13       30.02F FOG
DECORAH        CLOUDY    48  48 100 CALM      30.09R FOG
MASON CITY     CLOUDY    52  47  83 SE7       30.10S
CHARLES CITY   CLOUDY    50  50 100 E6        30.10S
OELWEIN        LGT RAIN  48  48 100 N14       30.07F
$$

...ELSEWHERE IN IOWA...


CITY           SKY/WX    TMP DP  RH WIND       PRES   REMARKS
DES MOINES     CLOUDY    50  44  80 NE10      30.06S
IOWA CITY      LGT RAIN  49  47  93 N12       30.02F
FORT DODGE     CLOUDY    52  43  71 N7        30.09S
MARSHALLTOWN   CLOUDY    49  46  90 N15       30.05F
CEDAR RAPIDS   LGT RAIN  48  48 100 N13       30.02S FOG
$$

...NORTHERN ILLINOIS...


CITY           SKY/WX    TMP DP  RH WIND       PRES   REMARKS
CHICAGO-OHARE  LGT RAIN  46  42  86 NE12      29.96F
CHICAGO-MIDWAY CLOUDY    47  41  80 N16       29.95F
MOLINE         LGT RAIN  50  47  89 N3        30.00R FOG
ROCKFORD       LGT RAIN  50  44  80 NE16      30.00F
PEORIA         CLOUDY    52  50  93 NE6       29.96R FOG
$$

NOTE: "FAIR" INDICATES FEW OR NO CLOUDS BELOW 12,000 FEET WITH NO
SIGNIFICANT WEATHER AND/OR OBSTRUCTIONS TO VISIBILITY. WIND
SPEEDS ARE IN MILES-PER-HOUR.




USA.gov is the U.S. government's official web portal to all federal, state and local government web resources and services.